Location: Boiro
(42.6475°N, 8.8834°W)
Time: 08:35:43
(UTC+01:00)

SR - Pass Details

Date: 07 December 2021
Orbit: 583 x 872 km, 66.7° (Epoch: 16 January)

Event Time Altitude Azimuth Distance (km) Brightness Sun altitude
Exits shadow 08:25:09 - 335° (NNW) 2,844 ? -5.2°
Rises 08:25:12 0° 335° (NNW) 2,825 ? -5.2°
Reaches altitude 10° 08:27:30 10° 343° (NNW) 1,937 ? -4.8°
Maximum altitude 08:31:36 41° 54° (NE) 904 ? -4.1°
Drops below altitude 10° 08:35:55 10° 125° (SE) 2,035 ? -3.4°
Sets 08:38:23 0° 132° (SE) 2,988 ? -3.0°
